Content
SEND FEEDBACK

Daily
Averages
Monthly
Summary
United States of America

ASHEVILLE, NORTH CAROLINA


Home > North America > United States > North Carolina
Elevation: 2240 feet     Latitude: 35 36N     Longitude: 082 32W

WEATHER
 
SELECT A DAY
Number of Records: 225,562;   Date Range: 1/1/95 - 7/20/14
 
SHARE

PRINT THIS DATA

[ ← Previous Day ]
WEATHER ALMANAC - MARCH 11, 2013
[ Next Day → ]
[ °C ]   °F
Weather ElementAverageHighLow
Temperature50.8 °F57.2 °F (5:01 pm)48 °F (8:54 am)
Dewpoint47.3 °F51.8 °F (7:24 pm)34 °F (1:54 am)
Humidity88.3 %100 % (8:24 pm)52 % (1:54 am)
Barometer29.96 in30.12 in (3:14 am)29.82 in (11:54 pm)
Wind Speed7.4 mph12.7 mph (2:54 am)
Wind Gust23 mph (10:54 am)
Weather ElementAverage
Visibility6.4 mi
Wind DirectionESE (126.2 °)

Weather ElementTotal
Precipitation1.75 in
Heating Degree Days12.4 (Base 65)
Growing Degree Days2.6 (Base 50)
Averaged from 50 records on March 11, 2013
WEATHER CONDITIONS BREAKOUT
WIND DIRECTION BREAKOUT
WEATHER BY HOUR - MARCH 11, 2013
[ °C ]   °F
Local TimeTemperatureDewpointHumidityBarometerVisibilityWind DirectionWind SpeedGust SpeedPrecipitationEventsConditions
1:54 AM51.1 °F34.0 °F52 %30.11 in10.0 miSSE (150°)8.1 mphOvercast
2:54 AM52.0 °F42.1 °F69 %30.09 in10.0 miSSE (150°)12.7 mphOvercast
3:14 AM51.8 °F42.8 °F71 %30.12 in10.0 miSSE (150°)10.4 mphOvercast
3:54 AM51.1 °F43.0 °F74 %30.06 in10.0 miSSE (150°)10.4 mphOvercast
4:54 AM50.0 °F43.0 °F77 %30.04 in10.0 miSSE (150°)11.5 mph19.6 mphOvercast
5:54 AM50.0 °F44.1 °F80 %30.03 in10.0 miSSE (150°)9.2 mphOvercast
6:11 AM50.0 °F44.6 °F82 %30.06 in10.0 miSSE (160°)12.7 mph18.4 mphOvercast
6:54 AM50.0 °F45.0 °F83 %30.04 in10.0 miSSE (160°)11.5 mph20.7 mphOvercast
7:54 AM50.0 °F45.0 °F83 %30.05 in10.0 miSSE (160°)10.4 mphOvercast
8:50 AM48.2 °F46.4 °F93 %30.08 in2.0 miSSE (160°)9.2 mph0.00 inRainLight Rain
8:54 AM48.0 °F46.0 °F93 %30.06 in2.0 miSSE (150°)8.1 mph0.00 inRainLight Rain
9:09 AM48.2 °F46.4 °F93 %30.08 in2.0 miSSE (160°)8.1 mph0.00 inOvercast
9:16 AM48.2 °F46.4 °F93 %30.08 in2.0 miSSE (160°)5.8 mph0.00 inOvercast
9:54 AM48.0 °F45.0 °F89 %30.04 in2.0 miSSE (150°)11.5 mph0.00 inOvercast
10:00 AM48.2 °F44.6 °F87 %30.06 in10.0 miSSE (150°)12.7 mphOvercast
10:27 AM48.2 °F44.6 °F87 %30.05 in10.0 miSSE (150°)11.5 mph19.6 mphOvercast
10:54 AM48.9 °F45.0 °F86 %30.03 in2.0 miSSE (150°)12.7 mph23.0 mphOvercast
11:01 AM48.2 °F44.6 °F87 %30.04 in4.0 miSSE (150°)11.5 mph18.4 mphOvercast
11:13 AM48.2 °F44.6 °F87 %30.04 in3.0 miSSE (160°)9.2 mph18.4 mph0.00 inRainLight Rain
11:54 AM48.0 °F46.0 °F93 %30.01 in3.0 miSSE (150°)10.4 mph0.00 inRainLight Rain
12:02 PM48.2 °F46.4 °F93 %30.02 in2.0 miSSE (150°)11.5 mph21.9 mph0.00 inRainLight Rain
12:50 PM48.2 °F46.4 °F93 %30.00 in2.0 miSE (130°)11.5 mph19.6 mph0.01 inOvercast
12:54 PM48.9 °F46.0 °F90 %29.98 in2.0 miSE (130°)10.4 mph19.6 mph0.01 inOvercast
1:01 PM48.2 °F46.4 °F93 %30.00 in10.0 miESE (120°)11.5 mph18.4 mphOvercast
1:52 PM48.2 °F46.4 °F93 %29.98 in10.0 miVariable5.8 mph0.00 inOvercast
1:54 PM48.9 °F46.0 °F90 %29.96 in10.0 miSE (130°)6.9 mph0.00 inOvercast
2:05 PM50.0 °F46.4 °F87 %29.96 in10.0 miESE (120°)6.9 mph0.00 inRainLight Rain
2:54 PM52.0 °F46.0 °F80 %29.90 in10.0 miSE (140°)9.2 mph0.00 inOvercast
3:01 PM51.8 °F46.4 °F82 %29.93 in10.0 miSE (130°)8.1 mphOvercast
3:54 PM54.0 °F46.9 °F77 %29.88 in10.0 miVariable6.9 mphOvercast
4:54 PM55.9 °F48.0 °F75 %29.85 in10.0 miESE (120°)5.8 mphOvercast
5:01 PM57.2 °F48.2 °F72 %29.88 in10.0 miSSE (150°)9.2 mph0.00 inRainLight Rain
5:54 PM55.9 °F48.9 °F77 %29.83 in10.0 miSouth (170°)10.4 mph0.00 inRainLight Rain
6:09 PM53.6 °F50.0 °F88 %29.87 in5.0 miSouth (180°)6.9 mph0.02 inRainRain
6:54 PM53.1 °F51.1 °F93 %29.84 in7.0 miSE (140°)4.6 mph0.06 inRainLight Rain
7:24 PM53.6 °F51.8 °F94 %29.88 in4.0 miSSE (160°)6.9 mph0.06 inRainRain
7:32 PM53.6 °F51.8 °F94 %29.88 in5.0 miSSE (160°)4.6 mph0.07 inRainRain
7:54 PM52.0 °F51.1 °F97 %29.86 in5.0 miSE (130°)3.5 mph0.12 inRainRain
8:24 PM51.8 °F51.8 °F100 %29.90 in2.5 miSW (230°)3.5 mph0.08 inRainHeavy Rain
8:38 PM51.8 °F51.8 °F100 %29.91 in2.0 miWNW (290°)4.6 mph0.17 inRainHeavy Rain
8:43 PM51.8 °F51.8 °F100 %29.90 in1.8 miCalm0.21 inRainHeavy Rain
8:47 PM51.8 °F51.8 °F100 %29.90 in2.0 miCalm0.25 inRainHeavy Rain
8:54 PM52.0 °F51.1 °F97 %29.87 in3.0 miCalm0.28 inRainRain
9:11 PM51.8 °F51.8 °F100 %29.89 in2.5 miCalm0.04 inRainRain
9:21 PM51.8 °F51.8 °F100 %29.89 in4.0 miESE (110°)3.5 mph0.06 inRainRain
9:27 PM51.8 °F51.8 °F100 %29.89 in4.0 miCalm0.08 inRainRain
9:54 PM52.0 °F51.1 °F97 %29.86 in6.0 miEast (90°)3.5 mph0.12 inRainLight Rain
10:18 PM51.8 °F51.8 °F100 %29.87 in10.0 miEast (100°)4.6 mph0.01 inRainLight Rain
10:54 PM52.0 °F51.1 °F97 %29.83 in10.0 miSSE (160°)3.5 mph0.04 inRainLight Rain
11:54 PM52.0 °F51.1 °F97 %29.82 in6.0 miCalm0.06 inRainRain
Hourly data recorded from KAVL, located miles away from Asheville, North Carolina







STORIES FROM OUR PARTNERS